Regional Weather Roundup
Issued by NWS

Home | Current Version | Previous Version | Graphics & Text | Print | Product List | Glossary On
Versions: 1 2 3 4 5 6 7 8 9 10 11 12 13 14 15 16 17 18 19 20 21 22 23 24 25 26 27 28 29 30 31 32 33 34 35 36 37 38 39 40 41 42 43 44 45 46 47 48 49 50
309
ASUS43 KMPX 281410
RWRMN
WEATHER ROUNDUP FOR MINNESOTA
NATIONAL WEATHER SERVICE TWIN CITIES/CHANHASSEN MN
900 AM CDT WED SEP 28 2016


NOTE: "FAIR" INDICATES FEW OR NO CLOUDS BELOW 12,000 FEET WITH NO
SIGNIFICANT WEATHER AND/OR OBSTRUCTIONS TO VISIBILITY. N/A MEANS
CURRENT SKY AND/OR WEATHER CONDITIONS ARE NOT AVAILABLE.

MNZ060>063-068>070-281500-
   Twin Cities Metro

CITY           SKY/WX    TMP DP  RH WIND       PRES   REMARKS
TWIN CITIES    PTSUNNY   55  48  77 N13       30.10R
ST PAUL        PTSUNNY   55  48  77 N10G20    30.11R
CRYSTAL        CLOUDY    54  46  74 N8        30.10R
BLAINE         CLOUDY    55  52  88 N7G17     30.10R
LAKEVILLE      MOSUNNY   52  48  87 N10       30.09R
EDEN PRAIRIE   CLOUDY    55  48  77 N9        30.09R
LAKEVILLE      MOSUNNY   52  48  87 N10       30.09R
SOUTH ST PAUL  PTSUNNY   55  48  80 N9        30.09R
LAKE ELMO      CLOUDY    54  50  87 N9G16     30.09R
$$
MNZ001>005-007-008-013>017-022>024-027-028-281500-
   Northwest Minnesota

CITY           SKY/WX    TMP DP  RH WIND       PRES   REMARKS
BEMIDJI        CLOUDY    48  47  97 N6        30.21S
HALLOCK        SUNNY     43  43 100 CALM      30.27R
ROSEAU         CLOUDY    48  45  87 N3        30.26R
WARROAD        CLOUDY    48  45  87 NW8       30.26R
THIEF RVR FALL   N/A     48  45  89 N6        30.26R
CROOKSTON      CLOUDY    50  46  87 CALM      30.26R
FOSSTON        CLOUDY    45  45 100 N3        30.25R FOG
DETROIT LAKES  CLOUDY    50  45  81 N3        30.23R
MOORHEAD       CLOUDY    46  45  93 NE6       30.25R
PARK RAPIDS    PTSUNNY   50  45  83 N9        30.20R
MAHNOMEN       CLOUDY    48  46  91 N6        30.23R
$$
MNZ006-009>011-018-025>026-281500-
   North Central Minnesota

CITY           SKY/WX    TMP DP  RH WIND       PRES   REMARKS
BAUDETTE       CLOUDY    50  49  96 NE7       30.24R
FLAG ISLAND    CLOUDY    48  46  93 W9        30.24R
INTL FALLS     CLOUDY    52  46  80 NE6       30.22R
WASKISH        FOG       48  46  93 NE3       30.23R VSB 3/4
BIG FORK       MOSUNNY   54  48  82 N6        30.20R
GRAND RAPIDS   CLOUDY    50  48  93 N8        30.20R
CRANE LAKE     MOSUNNY   50  48  93 N5        30.21R
ORR            MOSUNNY   52  46  82 CALM      30.17R
COOK           CLOUDY    52  48  87 CALM      30.19R
WALKER         CLOUDY    47  46  96 N6        30.21R
$$
MNZ012-019>021-037-281500-
   Northeast Minnesota

CITY           SKY/WX    TMP DP  RH WIND       PRES   REMARKS
DULUTH         CLOUDY    53  49  86 N12       30.14R
ELY            CLOUDY    52  48  87 NE5       30.16R
HIBBING        PTSUNNY   51  48  89 N9        30.17R
EVELETH        CLOUDY    53  48  84 NE9       30.17R
DULUTH HARBOR  SUNNY     55  52  88 N20       30.13R
TWO HARBORS    PTSUNNY   55  48  76 N9G17     30.11R
SILVER BAY     CLOUDY    55  48  76 N7        30.12R
GRAND MARAIS     N/A     57  49  74 VRB6      30.12R
G MARAIS ARPRT CLOUDY    50  45  81 N12G17    30.14R
$$
MNZ029>031-032-039>041-046>048-054>057-064-281500-
   West Central Minnesota

CITY           SKY/WX    TMP DP  RH WIND       PRES   REMARKS
FERGUS FALLS   CLOUDY    48  46  93 NE6       30.24R
MORRIS         CLOUDY    48  45  87 NE6       30.20R
ALEXANDRIA     MOSUNNY   51  48  89 N9        30.20R
ELBOW LAKE     CLOUDY    47  45  93 NE7       30.21R
GLENWOOD       PTSUNNY   48  46  93 N7        30.19R
BENSON         CLOUDY    48  45  87 NE6       30.20R
ORTONVILLE     CLOUDY    46  43  87 CALM      30.21R
MADISON        CLOUDY    50  46  87 NE7       30.21R
WILLMAR        PTSUNNY   52  48  87 NW8       30.19R
$$
MNZ033>034-036-042>043-049>051-058-059-281500-
   Central Minnesota

CITY           SKY/WX    TMP DP  RH WIND       PRES   REMARKS
ST CLOUD       PTSUNNY   51  49  92 N7        30.14R
SAUK CENTRE    PTSUNNY   49  46  90 NW7       30.18R
PAYNESVILLE    SUNNY     53  49  87 N7        30.17R
AITKIN         PTSUNNY   54  46  76 N8        30.15R
PINE RIVER     PTSUNNY   50  48  93 N7        30.22R
BRAINERD       CLOUDY    50  47  89 N12       30.17R
STAPLES        SUNNY     48  48 100 N10       30.18R
LONG PRAIRIE   CLOUDY    48  46  93 NW8       30.18R
LITTLE FALLS   MOSUNNY   50  45  81 N5        30.17R
LITCHFIELD     MOSUNNY   54  48  82 N13       30.15R
BUFFALO        CLOUDY    51  47  86 N8        30.14R
MAPLE LAKE     CLOUDY    52  49  91 NW8       30.15R
HUTCHINSON     PTSUNNY   52  48  86 NW14      30.15R
$$
MNZ037-044-045-052-053-281500-
   East Central Minnesota

CITY           SKY/WX    TMP DP  RH WIND       PRES   REMARKS
PRINCETON      CLOUDY    54  50  87 N10       30.13R
MORA           CLOUDY    50  45  81 N3        30.15R
CAMBRIDGE      CLOUDY    55  46  71 N8        30.10R
MOOSE LAKE     MOSUNNY   50  46  87 N5        30.12R
HINCKLEY       CLOUDY    52  50  93 N7        30.13R
CLOQUET        SUNNY     52  46  82 N9        30.13R
MCGREGOR       SUNNY     52  50  93 N9G18     30.15R
$$
MNZ071>073-080-081-089-090-097-098-281500-
   Southwest Minnesota

CITY           SKY/WX    TMP DP  RH WIND       PRES   REMARKS
MONTEVIDEO     CLOUDY    48  46  93 NE5       30.21R
GRANITE FALLS  CLOUDY    50  47  90 NW8       30.21R
CANBY          CLOUDY    47  44  91 NE6       30.21R
MARSHALL       CLOUDY    46  44  93 N12       30.20R
REDWOOD FALLS  CLOUDY    48  46  93 NW8       30.17R
OLIVIA         PTSUNNY   50  46  87 NW8       30.16R
PIPESTONE      CLOUDY    46  43  87 NE12      30.17R
WINDOM         CLOUDY    46  45  93 N15       30.16R FOG
WORTHINGTON    CLOUDY    45  43  93 N14       30.17R
JACKSON        CLOUDY    46  43  87 N7G16     30.15R FOG
TRACY          CLOUDY    47  45  94 N9        30.18R FOG
$$
MNZ065>067-074>077-082>085-091>093-281500-
   South Central Minnesota

CITY           SKY/WX    TMP DP  RH WIND       PRES   REMARKS
MANKATO        PTSUNNY   51  47  86 N12       30.12
NEW ULM        SUNNY     52  46  82 N14G21    30.13R
ST JAMES       CLOUDY    50  46  87 NW13G18   30.14R
FAIRMONT       CLOUDY    50  46  86 N10       30.13R
GLENCOE        CLOUDY    51  50  95 NW8       30.13R
FARIBAULT      CLOUDY    54  48  82 N7        30.09R
OWATONNA       CLOUDY    52  46  82 N14G20    30.08R
WASECA         CLOUDY    52  46  82 NW13      30.11R
ALBERT LEA     CLOUDY    52  46  82 N9        30.07R
$$
MNZ078>079-086>088-094>096-281500-
   Southeast Minnesota

CITY           SKY/WX    TMP DP  RH WIND       PRES   REMARKS
ROCHESTER      LGT RAIN  50  50 100 NW12G21   30.04R FOG
RED WING       CLOUDY    55  48  76 N8        30.05R
STANTON        CLOUDY    54  49  82 N10       30.07R
DODGE CENTER   DRIZZLE   50  48  93 N12       30.06R
WINONA         CLOUDY    54  52  94 NW10      30.02R
AUSTIN         CLOUDY    52  46  82 N9        30.05R
PRESTON        CLOUDY    49  47  93 NW13      30.02R
$$
ABBREVIATIONS USED IN REMARKS
   TC - TEMPERATURES IN CELSIUS
  WCI - WIND CHILL INDEX
   HX - HEAT INDEX
  VSB - VISIBILITY
$$




USA.gov is the U.S. government's official web portal to all federal, state and local government web resources and services.